ATLAS 5 CENTAUR DEB, 44682

Orbit data source: Space-Track

ATLAS 5 CENTAUR DEB, 44682 is space debris in HEO originally from a launch on Wed, 17 Oct 2018 UTC launched from the Air Force Eastern Test Range (AFETR). Debris objects in space refer to the collection of defunct objects orbiting the Earth. Examples of debris include non-operational satellites, rocket bodies, and fragments generated from explosions, collisions, or faulty payload assembly.

Loading next visibility...
Identifier
44682, 2018-079AU
Orbit
HEO
Country
Flag of USUS
Related business
Flag of USUnited Launch Alliance/Lockheed Martin (US)
Manufacturer
ULA Decatur
Mission
Spacecraft
Bus & Motor
Unknown
Mass
Unknown
Launch date (UTC)
2018-10-17 (7 years ago)
Launch vehicle
Unknown
Launch site
Air Force Eastern Test Range (AFETR)
Object type
Payload
Rocket body
Debris
Shape & HBR
Unknown shape, 1.1 m
Radar Cross Section
RCS unknown

Expand to show TLE details & history
Last TLE update: 2 days ago

TLE from 2 days ago
0 ATLAS 5 CENTAUR DEB
1 44682U 18079AU  25345.51059813 -.00000082  00000-0  00000-0 0  9991
2 44682  13.1867  52.0626 4632304 280.3547  32.2154  1.81924477 43449
Epoch: 2025-12-11T12:15Z
TLE epoch observation values (Epoch: 2025-12-11T12:15:15.678Z)
Latitude
0.00001°
Longitude
147.73103°
Altitude
14,198.413 km
Speed
4.968 km/s
True Right ascension
03h 28m 02s
True Declination
0° 00' 00"
Sunlit
Object was in daylight at epoch
Visualization orbit readout
Latitude
Unknown
Longitude
Unknown
Altitude
Unknown
Speed
Unknown
Apparent Right ascension
Unknown
Apparent Declination
Unknown
Sunlit
N/A
Visualization observer readout
Local Sidereal Time
10:44:08
Azimuth
Unknown
Elevation
Unknown
Doppler factor
Unknown
Orbital elements
Apogee altitude
35,099.97 km
Perigee altitude
8,837.64 km
Semi-major axis
28,346.942 km
Eccentricity
0.46323
Inclination
13.1867°
RAAN
52.0626°
Arg. of periapsis
280.3547°
True anomaly
79.62011°
Mean anomaly
32.2154°
Eccentric anomaly
53.56994°
Mean motion
0.45476 °/min
Orbital period
791.62 mins
BSTAR
0
Loading maneuver chart data...
Computing Atmospheric mass density...

Documentation

Showing up to 5 results
|